Flag for Canada Weather past 2 weeks in Creston, British Columbia, Canada

Now
32 °F

Chilly.


Feels Like: 32 °F
Forecast: 24 / 40 °F
Wind: 1 mph from Northeast

Location: Creston

Current Time: Jan 30, 2015 at 12:37:34 PM

Latest Report: Jan 30, 2015 at 12:00 PM


Visibility: N/A

Pressure: 30.49 "Hg

Humidity: 91%

Dew point: 29 °F

Location of CrestonLocation

Historic Weather in Creston — Graph

°F

Creston temperature yesterday

Maximum temperature yesterday: 41 °F (at 3:00 PM)
Minimum temperature yesterday: 30 °F (at 11:00 PM)
Average temperature yesterday: 34 °F

Past Weeks' High & Low Weather Summary

 TemperatureHumidityPressure
High44 °F (Jan 19, 3:00 PM)100% (Jan 16, 1:00 AM)30.60 "Hg (Jan 16, 1:00 AM)
Low25 °F (Jan 22, 8:00 AM)63% (Jan 19, 3:00 PM)29.84 "Hg (Jan 18, 7:00 AM)
Average33 °F91%30.32 "Hg
* Reported Jan 15 11:00 AM — Jan 30 11:00 AM, Creston, Weather by CustomWeather, © 2014

Note: Actual official high and low records may vary slightly from our data, if they occured in-between our weather recording intervals... More about our weather records

Advertising

Creston weather history for previous 24 hours

 ConditionsComfort  
Time TempWeatherWind HumidityBarometerVisibility
11:00 AM
Jan 30
30 °FChilly.3 mph84%30.50 "HgN/A
10:00 AM29 °FChilly.1 mph94%30.50 "HgN/A
9:00 AM28 °FChilly.6 mph88%30.50 "HgN/A
8:00 AM28 °FChilly.6 mph91%30.50 "HgN/A
7:00 AM29 °FChilly.6 mph86%30.50 "HgN/A
6:00 AM28 °FChilly.6 mph93%30.50 "HgN/A
5:00 AM29 °FChilly.3 mph86%30.51 "HgN/A
4:00 AM29 °FChilly.2 mph100%30.50 "HgN/A
3:00 AM27 °FChilly.1 mph97%30.50 "HgN/A
2:00 AM30 °FChilly.1 mph96%30.50 "HgN/A
1:00 AM29 °FChilly.5 mph92%30.50 "HgN/A
12:00 AM30 °FChilly.1 mph99%30.51 "HgN/A
11:00 PM
Jan 29
30 °FChilly.No wind98%30.51 "HgN/A
10:00 PM31 °FChilly.1 mph96%30.50 "HgN/A
9:00 PM31 °FChilly.2 mph96%30.50 "HgN/A
8:00 PM32 °FChilly.No wind99%30.50 "HgN/A
7:00 PM32 °FChilly.3 mph100%30.49 "HgN/A
6:00 PM33 °FChilly.2 mph93%30.49 "HgN/A
5:00 PM35 °FChilly.6 mph93%30.48 "HgN/A
4:00 PM37 °FChilly.7 mph92%30.49 "HgN/A
3:00 PM41 °FQuite cool.2 mph97%30.45 "HgN/A
2:00 PM37 °FChilly.2 mph100%30.49 "HgN/A
1:00 PM36 °FChilly.No wind100%30.52 "HgN/A
12:00 PM36 °FChilly.No wind99%30.54 "HgN/A
Weather by CustomWeather, © 2014

See weather overviewHow to use our weather pages